Regional Weather Roundup
Issued by NWS Sioux Falls, SD

Home | Current Version | Previous Version | Text Only | Print | Product List | Glossary Off
Versions: 1 2 3 4 5 6 7 8 9 10 11 12 13 14 15 16 17 18 19 20 21 22 23 24 25 26 27 28 29 30 31 32 33 34 35 36 37 38 39 40 41 42 43 44 45 46 47 48 49 50

664
ASUS43 KFSD 221902
RWRFSD

WEATHER ROUNDUP FOR SE SOUTH DAKOTA/SW MINNESOTA/NW IOWA
NATIONAL WEATHER SERVICE SIOUX FALLS SD
200 PM CDT SAT JUL 22 2017

NOTE: "FAIR" INDICATES FEW OR NO CLOUDS BELOW 12,000 FEET WITH NO
SIGNIFICANT WEATHER AND OR OBSTRUCTIONS TO VISIBILITY.


SDZ038>040-050-052>070-222000-
SOUTHEAST SOUTH DAKOTA

CITY           SKY/WX    TMP DP  RH WIND       PRES   REMARKS
BROOKINGS      CLOUDY    82  70  66 W9G17     29.93S
CHAMBERLAIN    MOSUNNY   92  61  35 N5        29.96F
HURON          SUNNY     86  70  58 VRB7      29.92S
MADISON        FAIR      81  70  69 NW8       29.94R
MITCHELL       MOSUNNY   85  70  60 NW6       29.94R
SIOUX FALLS    CLOUDY    86  73  65 W7        29.92R
WINNER         FAIR      92  62  36 CALM      30.00S
YANKTON        CLOUDY    79  71  76 N6        29.94S
$$

MNZ071-072-080-081-089-090-097-098-222000-
SOUTHWEST MINNESOTA

CITY           SKY/WX    TMP DP  RH WIND       PRES   REMARKS
FAIRMONT       PTSUNNY   83  72  69 W9        29.87S
JACKSON        SUNNY     82  72  69 CALM      29.89R
MARSHALL       MOSUNNY   82  71  69 NW12      29.88S
MONTEVIDEO     CLOUDY    88  73  62 N8        29.87S HX  96
PIPESTONE      MOSUNNY   82  70  65 NW8       29.92S
REDWOOD FALLS  MOSUNNY   86  71  60 NW14      29.85S
WINDOM         SUNNY     84  72  65 W12       29.88S
WORTHINGTON    MOSUNNY   84  71  65 W14G21    29.91R
$$

IAZ001>003-012>014-020>022-031-032-NEZ013-014-SDZ071-222000-
NORTHWEST IOWA

CITY           SKY/WX    TMP DP  RH WIND       PRES   REMARKS
CHEROKEE       CLOUDY    86  75  69 NW8       29.88S
DENISON        SUNNY     86  75  70 N10G16    29.88S HX  95
ESTHERVILLE    MOSUNNY   83  73  72 N7        29.87S
ORANGE CITY    CLOUDY    81  75  83 NW12      29.92R
SHELDON        CLOUDY    82  73  74 NW10      29.89S
SIOUX CITY     CLOUDY    81  75  82 NW15      29.90R
SPENCER        MOSUNNY   87  73  62 NW12      29.88S
STORM LAKE     CLOUDY    86  73  66 NE8       29.88F
$$

ABBREVIATIONS USED IN REMARKS
   TC - TEMPERATURE IN CELSIUS
  WCI - WIND CHILL INDEX
   HX - HEAT INDEX
  VSB - VISIBILITY





USA.gov is the U.S. government's official web portal to all federal, state and local government web resources and services.